Preview of NWS' New Version of Forecast
This preview is not operational and should not be used for support decisions.
Latest weather observations around

Boyd Deep Canyon Reserve (UCNRS) (UCDE)

Using English Units (Switch to International System of Units)
Date/ Time (PST) Wind (mph) Vis. (mi) Weather Sky Cond. Temp (°F) Rel. Humidity Wind Chill (°F) Heat Index (°F) Pressure Precip. (in)
Air Dwpt 6 hour Altimeter (inHg) Sea level (inHg) 1 hr 3 hr 6 hr
Max Min
Jan 18 11:40 NE 4   Clear   64 51     62%     30.23        
Jan 18 11:30 NE 3   Clear   64 50     61%     30.23        
Jan 18 11:20 NE 6   Clear   63 51     65%     30.24        
Jan 18 11:10 NNE 6   Clear   63 51     64%     30.23        
Jan 18 11:00 NE 5   Clear   64 51     63%     30.24        
Jan 18 10:50 NE 1   Clear   66 49     55%     30.24        
Jan 18 10:40 S 3   Clear   65 49     58%     30.23        
Jan 18 10:30 NNW 3   Clear   63 49     60%     30.23        
Jan 18 10:20 NNE 4   Clear   63 50     62%     30.23        
Jan 18 10:10 NE 3   Clear   64 49     59%     30.23        
Jan 18 10:00 WNW 1   Clear   64 49     59%     30.22        
Jan 18 09:50 S 3   Clear   63 49     61%     30.21        
Jan 18 09:40 SSE 5   Clear   62 49     62%     30.21        
Jan 18 09:30 E 2   Clear   62 49     62%     30.2        
Jan 18 09:20 SE 3   Clear   61 49     63%     30.2        
Jan 18 09:10 SSE 3   Clear   60 48     64%     30.19        
Jan 18 09:00 ESE 4   Clear   61 49     64%     30.19        
Jan 18 08:50 ESE 6   Clear   60 48     66%     30.19        
Jan 18 08:40 SSE 4   Clear   60 48     65%     30.18        
Jan 18 08:30 ESE 3   Clear   60 48     66%     30.18        
Jan 18 08:20 WNW 1   Clear   59 48     66%     30.18        
Jan 18 08:10 NE 3   Clear   57 47     70%     30.17        
Jan 18 08:00 ESE 5   Clear   57 47     69%     30.16        
Jan 17 22:10 WNW 4   Clear   55 52     90%     30.16        
Jan 17 22:00 SW 3   Clear   53 51     93%     30.15        
Jan 17 21:50 SSW 3   Clear   53 51     94%     30.16        
Jan 17 21:40 N 3   Clear   53 52     94%     30.14        
Jan 17 21:30 S 3   Clear   53 51     94%     30.15        
Jan 17 21:20 SW 7   Clear   53 51     94%     30.16        
Jan 17 21:10 S 3   Clear   53 51     93%     30.16        
Jan 17 21:00 ENE 5   Clear   53 51     90%     30.15        
Jan 17 20:50 E 4   Clear   55 51     86%     30.13        
Jan 17 20:40 E 4   Clear   57 51     81%     30.13        
Jan 17 20:30 ESE 8   Clear   59 51     76%     30.12        
Jan 17 20:20 E 6   Clear   57 52     82%     30.12        
Jan 17 20:10 NNE 3   Clear   57 51     83%     30.13        
Jan 17 20:00 E 6   Clear   58 52     79%     30.14        
Jan 17 19:50 NNE 3   Clear   56 52     85%     30.13        
Jan 17 19:40 SE 1   Clear   56 52     86%     30.12        
Jan 17 19:30 SSW 2   Clear   55 52     89%     30.13        
Jan 17 19:20 SW 3   Clear   55 52     89%     30.13        
Jan 17 19:10 W 3   Clear   55 52     89%     30.13        
Jan 17 19:00 SW 4   Clear   55 52     90%     30.13        
Jan 17 18:50 SSW 4   Clear   55 52     92%     30.13        
Jan 17 18:40 SSW 4   Clear   54 52     93%     30.13        
Jan 17 18:30 WNW 3   Clear   54 52     94%     30.13        
Jan 17 18:20 SW 3   Clear   54 52     94%     30.13        
Jan 17 18:10 SSW 4   Clear   54 52     94%     30.12        
Jan 17 18:00 SW 5   Clear   54 52     94%     30.12        
Jan 17 17:50 NNE 1   Clear   54 52     94%     30.12        
Jan 17 17:40 NE 1   Clear   54 52     94%     30.12        
Jan 17 17:30 SW 1   Clear   54 52     93%     30.12        
Jan 17 17:20 ESE 2   Clear   54 52     93%     30.13        
Jan 17 17:10 E 1   Clear   55 52     92%     30.13        
Jan 17 17:00 N 3   Clear   55 53     92%     30.14        
Jan 17 16:50 E 2   Clear   55 53     92%     30.13        
Jan 17 16:40 SW 3   Clear   55 53     92%     30.14        
Jan 17 16:30 W 2   Clear   55 53     93%     30.14        
Jan 17 16:20 WNW 2   Clear   54 53     94%     30.14        
Jan 17 16:10 NNE 4   Clear   54 53     94%     30.14        
Jan 17 16:00 NE 4   Clear   55 53     94%     30.13        
Jan 17 15:50 NE 3   Clear   54 53     93%     30.13        
Jan 17 15:40 NE 3   Clear   54 53     93%     30.13        
Jan 17 15:30 NNE 4   Clear   55 53     92%     30.13        
Jan 17 15:20 NE 2   Clear   55 53     91%     30.13        
Jan 17 15:10 N 2   Clear   56 53     90%     30.13        
Jan 17 15:00 NE 2   Clear   55 52     90%     30.13        
Jan 17 14:50 N 4   Clear   55 52     89%     30.13        
Jan 17 14:40 NNE 4   Clear   56 52     88%     30.13        
Jan 17 14:30 NNE 4   Clear   56 53     88%     30.13        
Jan 17 14:20 NE 5   Clear   57 53     86%     30.13        
Jan 17 14:10 N 3   Clear   57 53     86%     30.13        
Jan 17 14:00 NNW 3   Clear   56 52     87%     30.13        
Jan 17 13:50 NW 5   Clear   56 52     87%     30.13        
Jan 17 13:40 N 4   Clear   57 53     88%     30.12        
Jan 17 13:30 E 2   Clear   56 54     91%     30.12        
Jan 17 13:20 ESE 2   Clear   55 53     92%     30.13        
Jan 17 13:10 ENE 3   Clear   54 52     92%     30.14        
Jan 17 13:00 NE 2   Clear   54 52     92%     30.14        
Jan 17 12:50 NE 5   Clear   55 52     90%     30.15        
Jan 17 12:40 NNE 4   Clear   56 53     89%     30.15        
Jan 17 12:30 NNE 3   Clear   56 53     91%     30.15        
Jan 17 12:20 E 2   Clear   55 53     92%     30.15        
Jan 17 12:10 WNW 2   Clear   54 53     94%     30.17        
Jan 17 12:00 ENE 1   Clear   54 52     95%     30.18        
Jan 17 11:50 E 1   Clear   53 52     95%     30.19        
Jan 17 11:40 N 1   Clear   53 51     96%     30.2        
Jan 17 11:30 NE 3   Clear   52 51     96%     30.21        
Jan 17 11:20 ENE 3   Clear   52 51     96%     30.21        
Jan 17 11:10 ENE 1   Clear   52 51     96%     30.21        
Jan 17 11:00 ENE 2   Clear   52 51     95%     30.22        
Jan 17 10:50 NE 3   Clear   52 51     95%     30.22        
Jan 17 10:40 NNE 4   Clear   52 51     95%     30.21        
Jan 17 10:30 NNE 3   Clear   52 50     94%     30.2        
Jan 17 10:20 NNE 4   Clear   52 51     94%     30.21        
Jan 17 10:10 NNE 5   Clear   53 51     94%     30.21        
Jan 17 10:00 NNE 6   Clear   53 51     93%     30.2        
Jan 17 09:50 NNE 8   Clear   53 51     92%     30.2        
Jan 17 09:40 NE 8   Clear   54 51     90%     30.19        
Jan 17 09:30 NNE 8   Clear   55 51     87%     30.19        
Jan 17 09:20 E 9   Clear   55 50     83%     30.17        
Jan 17 09:10 WNW 3   Clear   56 50     81%     30.16        
Jan 17 09:00 NNW 1   Clear   56 51     83%     30.15        
Jan 17 08:50 SW 1   Clear   55 50     85%     30.15        
Jan 17 08:40 NW 1   Clear   54 50     86%     30.16        
Jan 17 08:30 S 3   Clear   53 50     88%     30.17        
Jan 17 08:20 ESE 2   Clear   53 50     88%     30.18        
Jan 17 08:10 ESE 6   Clear   54 50     86%     30.17        
Jan 17 08:00 NE 4   Clear   53 50     89%     30.17        
Jan 17 07:50 ENE 1   Clear   53 50     90%     30.16        
Jan 17 07:40 SW 1   Clear   52 50     90%     30.16        
Jan 17 07:30 SW 1   Clear   52 49     90%     30.16        
Jan 17 07:20 NE 1   Clear   52 49     90%     30.16        
Jan 17 07:10 ENE 2   Clear   52 50     90%     30.16        
Jan 17 07:00 ENE 2   Clear   52 50     91%     30.16        
Jan 17 06:50 SSE 1   Clear   52 49     92%     30.16        
Jan 17 06:40 WSW 1   Clear   51 49     92%     30.15        
Jan 17 06:30 N 2   Clear   52 49     91%     30.14        
Jan 17 06:20 NE 3   Clear   52 49     91%     30.14        
Jan 17 06:10 SE 1   Clear   52 49     91%     30.15        
Notice The following observation data may not be complete
Jan 17 06:00     Clear            %              
Jan 17 05:10 NE 2   Clear   53 49     87%     30.14        
Notice The following observation data may not be complete
Jan 17 05:00     Clear            %              
Jan 17 04:00 E 2   Clear   52 49     89%     30.13        
Jan 17 03:50 SW 2   Clear   52 49     89%     30.14        
Jan 17 03:40 WSW 2   Clear   52 49     88%     30.15        
Jan 17 03:30 SE 2   Clear   52 49     89%     30.15        
Jan 17 03:20 ESE 2   Clear   52 49     90%     30.15        
Jan 17 03:10 SW 3   Clear   52 49     90%     30.16        
Jan 17 03:00 SW 4   Clear   52 49     90%     30.16        
Jan 17 02:50 WSW 1   Clear   52 49     90%     30.16        
Jan 17 02:40 SSE 2   Clear   51 49     90%     30.16        
Jan 17 02:30 WSW 2   Clear   52 49     90%     30.17        
Jan 17 02:20 SW 4   Clear   51 49     90%     30.17        
Jan 17 02:10 SW 2   Clear   51 49     90%     30.18        
Jan 17 02:00 SSW 1   Clear   51 49     90%     30.19        
Jan 17 01:50 N 1   Clear   51 49     91%     30.18        
Jan 17 01:40 SSE 1   Clear   51 48     90%     30.18        
Jan 17 01:30 SW 1   Clear   51 48     90%     30.18        
Jan 17 01:20 W 1   Clear   51 48     90%     30.18        
Jan 17 01:10 SSW 1   Clear   51 49     90%     30.18        
Jan 17 01:00 WSW 1   Clear   52 48     89%     30.19        
Jan 17 00:50 Calm   Clear   52 49     89%     30.19        
Jan 17 00:40 SW 1   Clear   52 49     88%     30.2        
Jan 17 00:30 S 1   Clear   52 49     88%     30.2        
Jan 17 00:20 SW 1   Clear   53 48     86%     30.2        
Jan 17 00:10 SE 2   Clear   53 49     85%     30.2        
Jan 17 00:00 ESE 1   Clear   53 49     85%     30.2        
Jan 16 23:50 SSW 5   Clear   53 50     89%     30.21        
Jan 16 23:40 SSW 4   Clear   52 49     89%     30.21        
Jan 16 23:30 SSW 1   Clear   52 49     89%     30.22        
Jan 16 23:20 N 1   Clear   52 49     88%     30.22        
Jan 16 23:10 SSW 2   Clear   53 49     88%     30.22        
Jan 16 23:00 SSW 4   Clear   52 49     89%     30.23        
Jan 16 22:50 SSW 3   Clear   52 49     90%     30.23        
Jan 16 22:40 SW 4   Clear   52 50     91%     30.23        
Jan 16 22:30 SW 2   Clear   52 49     91%     30.23        
Jan 16 22:20 SW 1   Clear   52 49     91%     30.24        
Jan 16 22:10 W 1   Clear   52 49     90%     30.24        
Jan 16 22:00 E 1   Clear   52 49     89%     30.24        
Jan 16 21:50 SSW 2   Clear   53 49     89%     30.23        
Jan 16 21:40 SSW 3   Clear   53 50     90%     30.23        
Jan 16 21:30 SSW 3   Clear   53 50     90%     30.23        
Jan 16 21:20 SE 1   Clear   53 50     90%     30.23        
Jan 16 21:10 N 1   Clear   53 50     90%     30.23        
Jan 16 21:00 S 3   Clear   53 50     91%     30.23        
Jan 16 20:50 SW 2   Clear   53 50     90%     30.23        
Jan 16 20:40 SW 2   Clear   53 50     90%     30.23        
Jan 16 20:30 SSW 3   Clear   53 50     90%     30.23        
Jan 16 20:20 SW 3   Clear   53 50     90%     30.23        
Jan 16 20:10 SW 2   Clear   53 50     90%     30.23        
Jan 16 20:00 WSW 1   Clear   53 50     90%     30.23        
Jan 16 19:50 E 1   Clear   54 51     90%     30.23        
Jan 16 19:40 Calm   Clear   54 51     90%     30.23        
Jan 16 19:30 SW 2   Clear   53 51     90%     30.23        
Jan 16 19:20 SSW 1   Clear   54 51     90%     30.23        
Jan 16 19:10 SW 2   Clear   53 51     91%     30.23        
Jan 16 19:00 SSW 3   Clear   53 50     90%     30.23        
Jan 16 18:50 SW 2   Clear   53 51     90%     30.23        
Jan 16 18:40 Calm   Clear   54 51     89%     30.22        
Jan 16 18:30 ENE 1   Clear   54 51     89%     30.21        
Jan 16 18:20 ESE 1   Clear   54 51     88%     30.21        
Jan 16 18:10 SSW 2   Clear   55 51     87%     30.21        
Jan 16 18:00 SSW 1   Clear   55 51     86%     30.21        
Jan 16 17:50 WSW 1   Clear   56 51     85%     30.21        
Jan 16 17:40 SSE 1   Clear   56 51     84%     30.21        
Jan 16 17:30 SE 2   Clear   56 51     85%     30.2        
Jan 16 17:20 ENE 2   Clear   56 52     85%     30.2        
Jan 16 17:10 NE 2   Clear   56 51     83%     30.2        
Jan 16 17:00 SW 2   Clear   56 51     83%     30.2        
Jan 16 16:50 SW 2   Clear   56 51     81%     30.2        
Jan 16 16:40 SSE 1   Clear   56 50     80%     30.2        
Jan 16 16:30 NNE 1   Clear   57 51     80%     30.21        
Jan 16 16:20 NNW 1   Clear   57 51     80%     30.21        
Jan 16 16:10 NNW 2   Clear   57 51     79%     30.21        
Jan 16 16:00 Calm   Clear   57 50     78%     30.2        
Jan 16 15:50 E 1   Clear   58 51     75%     30.2        
Jan 16 15:40 Calm   Clear   59 51     76%     30.2        
Jan 16 15:30 ESE 1   Clear   58 51     78%     30.2        
Jan 16 15:20 ESE 2   Clear   59 51     74%     30.2        
Jan 16 15:10 S 1   Clear   59 51     74%     30.2        
Jan 16 15:00 ESE 1   Clear   59 51     74%     30.2        
Jan 16 14:50 WNW 1   Clear   58 51     77%     30.2        
Jan 16 14:40 NNE 1   Clear   57 51     79%     30.21        
Jan 16 14:30 ENE 2   Clear   57 51     81%     30.21        
Jan 16 14:20 NE 2   Clear   56 51     82%     30.21        
Jan 16 14:10 NNE 2   Clear   56 50     82%     30.21        
Jan 16 14:00 NNE 1   Clear   57 51     80%     30.2        
Jan 16 13:50 Calm   Clear   56 51     83%     30.2        
Jan 16 13:40 N 2   Clear   55 50     84%     30.2        
Jan 16 13:30 NNE 2   Clear   55 50     84%     30.2        
Jan 16 13:20 NE 2   Clear   55 50     84%     30.2        
Jan 16 13:10 NNE 3   Clear   55 50     84%     30.2        
Jan 16 13:00 NW 2   Clear   55 50     84%     30.21        
Jan 16 12:50 WSW 2   Clear   55 50     84%     30.21        
Jan 16 12:40 W 3   Clear   55 50     84%     30.21        
Jan 16 12:30 SSW 2   Clear   55 51     85%     30.22        
Jan 16 12:20 SW 2   Clear   55 51     87%     30.22        
Jan 16 12:10 N 2   Clear   55 51     88%     30.23        
Jan 16 12:00 NNE 2   Clear   54 51     88%     30.23        
Jan 16 11:50 NNE 2   Clear   54 51     88%     30.24        
Jan 16 11:40 ENE 2   Clear   54 51     88%     30.24        
Jan 16 11:30 ENE 2   Clear   54 51     88%     30.25        
Jan 16 11:20 ENE 3   Clear   54 51     88%     30.25        
Jan 16 11:10 ENE 2   Clear   54 51     88%     30.26        
Jan 16 11:00 NE 2   Clear   54 51     89%     30.27        
Jan 16 10:50 NNE 4   Clear   54 51     90%     30.27        
Jan 16 10:40 NNE 4   Clear   54 51     90%     30.27        
Jan 16 10:30 NNE 5   Clear   54 51     90%     30.27        
Jan 16 10:20 NNE 6   Clear   54 51     89%     30.27        
Jan 16 10:10 NE 5   Clear   55 50     83%     30.27        
Jan 16 10:00 NE 3   Clear   56 50     81%     30.26        
Jan 16 09:50 NNE 2   Clear   56 50     79%     30.26        
Jan 16 09:40 N 2   Clear   57 50     77%     30.25        
Jan 16 09:30 ENE 1   Clear   57 51     80%     30.25        
Jan 16 09:20 ENE 2   Clear   56 51     85%     30.25        
Jan 16 09:10 ESE 3   Clear   54 51     89%     30.24        
Jan 16 09:00 ENE 3   Clear   54 52     91%     30.24        
Jan 16 08:50 SSW 2   Clear   54 52     94%     30.24        
Jan 16 08:40 SW 2   Clear   53 51     95%     30.24        
Jan 16 08:30 SW 2   Clear   52 51     96%     30.24        
Jan 16 08:20 Calm   Clear   52 51     96%     30.23        
Jan 16 08:10 NE 1   Clear   51 50     96%     30.23        
Jan 16 08:00 NE 1   Clear   51 50     96%     30.22        
Jan 16 07:50 Calm   Clear   51 50     96%     30.22        
Jan 16 07:40 E 1   Clear   51 50     96%     30.21        
Jan 16 07:30 Calm   Clear   51 50     96%     30.21        
Jan 16 07:20 Calm   Clear   51 50     96%     30.2        
Jan 16 07:10 W 1   Clear   51 50     97%     30.2        
Notice The following observation data may not be complete
Jan 16 07:00     Clear            %              
Jan 15 22:50 NE 3   Clear   50 49     96%     30.15        
Jan 15 22:40 ENE 3   Clear   50 48     95%     30.15        
Jan 15 22:30 SSW 2   Clear   50 48     95%     30.14        
Jan 15 22:20 WSW 3   Clear   50 48     95% 49   30.14        
Jan 15 22:10 NE 3   Clear   50 48     94%     30.15        
Jan 15 22:00 NE 6   Clear   50 48     93% 47   30.13        
Jan 15 21:50 NE 4   Clear   50 48     92% 49   30.13        
Jan 15 21:40 NE 5   Clear   51 48     91%     30.12        
Jan 15 21:30 S 4   Clear   50 48     93% 49   30.11        
Jan 15 21:20 SW 3   Clear   50 48     93% 50   30.11        
Jan 15 21:10 SSE 3   Clear   50 48     93%     30.11        
Jan 15 21:00 ESE 1   Clear   50 48     93%     30.12        
Jan 15 20:50 NNE 2   Clear   50 48     93%     30.11        
Jan 15 20:40 ESE 2   Clear   50 48     92%     30.1        
Jan 15 20:30 NE 2   Clear   51 48     92%     30.11        
Jan 15 20:20 NNE 3   Clear   51 48     91%     30.1        
Jan 15 20:10 Calm   Clear   51 48     91%     30.11        
Jan 15 20:00 SW 3   Clear   51 48     91%     30.12        
Jan 15 19:50 S 3   Clear   51 48     90%     30.11        
Jan 15 19:40 NE 3   Clear   51 48     90%     30.12        
Jan 15 19:30 WNW 3   Clear   51 48     91%     30.11        
Jan 15 19:20 NNE 3   Clear   51 49     92%     30.1        
Jan 15 19:10 NNE 2   Clear   51 48     91%     30.1        
Jan 15 19:00 Calm   Clear   51 48     91%     30.1        
Jan 15 18:50 SW 1   Clear   51 48     90%     30.1        
Jan 15 18:40 Calm   Clear   51 48     90%     30.1        
Jan 15 18:30 SSE 1   Clear   51 48     90%     30.1        
Jan 15 18:20 ESE 1   Clear   52 49     89%     30.1        
Jan 15 18:10 NNE 2   Clear   52 49     88%     30.1        
Jan 15 18:00 NNE 2   Clear   52 48     86%     30.09        
Jan 15 17:30 ESE 1   Clear   53 47     80%     30.06        
Jan 15 17:20 SE 4   Clear   53 47     81%     30.06        
Jan 15 17:10 ESE 3   Clear   53 47     80%     30.06        
Jan 15 17:00 NNE 7   Clear   53 47     81%     30.05        
Jan 15 16:50 NNE 6   Clear   53 48     81%     30.05        
Jan 15 16:40 E 4   Clear   54 47     78%     30.04        
Jan 15 16:30 ENE 4   Clear   54 48     79%     30.04        
Jan 15 16:20 N 4   Clear   54 48     79%     30.04        
Jan 15 16:10 NE 2   Clear   54 48     78%     30.05        
Jan 15 16:00 NE 3   Clear   54 48     78%     30.05        
Jan 15 15:50 NE 3   Clear   54 48     79%     30.05        
Jan 15 15:40 NNE 3   Clear   55 48     78%     30.05        
Jan 15 15:30 WNW 2   Clear   54 48     79%     30.05        
Jan 15 15:20 NNE 4   Clear   54 48     80%     30.04        
Jan 15 15:10 NE 3   Clear   55 48     79%     30.04        
Jan 15 15:00 NE 3   Clear   55 49     78%     30.04        
Jan 15 14:50 NNE 5   Clear   56 49     77%     30.04        
Jan 15 14:40 NNE 4   Clear   56 49     78%     30.04        
Jan 15 14:30 N 4   Clear   55 49     81%     30.04        
Jan 15 14:20 NNE 3   Clear   54 49     81%     30.04        
Jan 15 14:10 N 4   Clear   54 49     81%     30.04        
Jan 15 14:00 NNE 4   Clear   55 49     81%     30.04        
Jan 15 13:50 N 4   Clear   55 49     80%     30.04        
Jan 15 13:40 NW 3   Clear   53 48     82%     30.04        
Jan 15 13:30 WNW 6   Clear   53 48     82%     30.04        
Jan 15 13:20 NNE 5   Clear   54 48     81%     30.04        
Jan 15 13:10 NNE 5   Clear   55 49     80%     30.04        
Jan 15 13:00 NE 4   Clear   54 48     80%     30.04        
Jan 15 12:50 E 6   Clear   54 48     82%     30.04        
Jan 15 12:40 ENE 9   Clear   53 48     83%     30.04        
Jan 15 12:30 ENE 8   Clear   53 49     86%     30.05        
Jan 15 12:20 NNE 4   Clear   53 49     87%     30.06        
Jan 15 12:10 NE 3   Clear   53 49     87%     30.06        
Jan 15 12:00 NNE 3   Clear   53 49     87%     30.06        
Jan 15 11:50 N 3   Clear   53 49     88%     30.07        
May 15 09:50 N 5   Clear   76 44     31%   75 29.9        
May 15 09:20 N 3   Clear   75 43     32%   74 29.9        
May 15 05:00 Calm   Clear   63 46     55%     29.82        
May 14 23:50 NE 3   Clear   70 45     40%     29.82        
May 14 18:50 N 5   Clear   81 42     25%   80 29.77        
May 14 18:00 NNW 8   Clear   85 38     19%   82 29.77        
May 14 16:20 N 4   Clear   86        %     29.79        
May 14 15:50 NNW 6   Clear   85 27     12%   82 29.79        
May 14 14:30 NE 5   Clear   85 28     13%   81 29.82        
May 14 10:40 N 6   Clear   77 41     27%   76 29.87        
May 14 09:30 N 4   Clear   75 39     27%   73 29.86        
May 14 09:10 N 4   Clear   73 40     30%   72 29.86        
May 14 09:00 N 4   Clear   72 41     33%   71 29.86        
May 14 06:30 NE 3   Clear   59 43     56%     29.82        
May 14 03:30 NNE 3   Clear   62 46     56%     29.81        
May 14 00:40 Calm   Clear   65 44     47%     29.82        
May 13 18:30 NNW 7   Clear   78 40     26%   77 29.8        
May 13 16:50 NNW 6   Clear   81 39     23%   79 29.81        
May 13 16:00 NNW 6   Clear   79 40     25%   77 29.82        
May 13 12:40 NE 7   Clear   77 40     27%   75          
May 13 07:40 NNW 3   Clear   65 43     44%     29.86        
Notice The following observation data may not be complete
May 13 07:20     Clear            %              
May 13 07:10 NNE 3   Clear   66 43     43%     29.85        
May 13 03:00 Calm   Clear   61 42     50%     29.8        
May 13 02:10 NNE 3   Clear   63 40     44%     29.79        
May 12 16:00 NNW 7   Clear   79 40     25%   78 29.76        
May 12 12:10 NNW 7   Clear   75 41     29%   74 29.81        
May 12 11:40 N 5   Clear   74 42     31%   73 29.82        
May 12 00:40     Clear   66 34     31%     29.65        
May 11 23:10 W 7   Clear   65 41     40%     29.65        
May 11 22:30 WSW 12   Clear   67 36     32%     29.66        
May 11 22:00     Clear   66 38     36%              
May 11 18:00     Clear   81 37     21%   79 29.59        
Notice The following observation data may not be complete
May 11 11:20     Clear            %